917  
ASUS43 KIWX 010010  
RWRIWX  
 
KIWX WEATHER ROUNDUP  
NATIONAL WEATHER SERVICE NORTHERN INDIANA  
800 PM EDT SUN MAY 31 2020  
 
NOTE: "FAIR" INDICATES FEW OR NO CLOUDS BELOW 12,000 FEET WITH NO  
SIGNIFICANT WEATHER AND/OR S TO VISIBILITY
.  
 
* THESE STATIONS ARE NOT UNDER NWS QUALITY CONTROL. THEY ALSO MAY NOT  
REPORT WEATHER SUCH AS PRECIPITATION OR FOG.
 
 
INZ001>027-010100-  
NORTHERN INDIANA  
 
CITY SKY/WX TMP DP RH WIND PRES REMARKS
 
GARY* MOSUNNY 63 N/A N/A NE6 30.29F  
VALPARAISO SUNNY 64 37 36 N3 30.29S  
6HR MIN TEMP: 63; 6HR MAX TEMP: 67;  
 
MICHIGAN CITY* SUNNY 59 45 58 NE3 30.30S  
LAPORTE* SUNNY 62 37 40 NE6 30.31R  
6HR MIN TEMP: 61; 6HR MAX TEMP: 64;  
 
KNOX* SUNNY 63 34 34 N9 30.29R  
SOUTH BEND SUNNY 62 36 37 N9 30.31R  
6HR MIN TEMP: 62; 6HR MAX TEMP: 66;  
 
GOSHEN SUNNY 63 34 33 NW9 30.28R  
6HR MIN TEMP: 63; 6HR MAX TEMP: 68;  
 
MONTICELLO* SUNNY 69 35 28 NE6 30.26R  
6HR MIN TEMP: 66; 6HR MAX TEMP: 72;  
 
LOGANSPORT* SUNNY 68 39 34 N3 30.27S  
ROCHESTER* SUNNY 66 34 30 N9 30.28R  
PLYMOUTH* SUNNY 63 36 36 N6 30.29R  
WARSAW* SUNNY 63 36 36 NW5 30.28R  
AUBURN* MOSUNNY 63 36 36 CALM 30.29R  
FORT WAYNE MOSUNNY 67 31 26 N7 30.27S  
6HR MIN TEMP: 66; 6HR MAX TEMP: 69;  
 
HUNTINGTON* SUNNY N/A N/A N/A N3 30.27R  
PERU/GRISSOM SUNNY 67 41 39 CALM 30.26S  
6HR MIN TEMP: 65; 6HR MAX TEMP: 69;  
 

 
INZ028>050-010100-  
CENTRAL INDIANA  
 
CITY SKY/WX TMP DP RH WIND PRES REMARKS
 
LAFAYETTE SUNNY 72 41 32 VRB6 30.25S  
6HR MIN TEMP: 71; 6HR MAX TEMP: 75;  
 
KOKOMO* SUNNY 68 42 38 N7 30.27S  
6HR MIN TEMP: 66; 6HR MAX TEMP: 70;  
 
MARION* SUNNY 66 44 44 N5 30.28R  
6HR MIN TEMP: 25; 6HR MAX TEMP: 87;  
 
MUNCIE* SUNNY 70 40 33 NW6 30.26S  
6HR MIN TEMP: 67; 6HR MAX TEMP: 72;  
 
PORTLAND* FAIR 66 25 20 N3 30.27R  
INDIANAPOLIS MOSUNNY 69 41 36 NE7 30.25S  
6HR MIN TEMP: 68; 6HR MAX TEMP: 72;  
 

 
MIZ043>046-050>051-056>058-064>065-071>073-077>080-010100-  
SOUTHWEST LOWER MICHIGAN  
 
CITY SKY/WX TMP DP RH WIND PRES REMARKS
 
BATTLE CREEK PTSUNNY 62 36 37 NW6 30.28R  
6HR MIN TEMP: 60; 6HR MAX TEMP: 65;  
 
BENTON HARBOR SUNNY 57 33 40 CALM 30.30R  
6HR MIN TEMP: 57; 6HR MAX TEMP: 62;  
 
COLDWATER* PTSUNNY 63 32 31 W3 30.28R  
HILLSDALE* PTSUNNY 60 35 40 CALM 30.28R  
6HR MIN TEMP: 56; 6HR MAX TEMP: 63;  
 
HOLLAND PTSUNNY 60 27 28 SW3 30.29S  
6HR MIN TEMP: 58; 6HR MAX TEMP: 62;  
 
GRAND RAPIDS PTSUNNY 60 35 39 W9 30.28S  
6HR MIN TEMP: 59; 6HR MAX TEMP: 66;  
 
KALAMAZOO PTSUNNY 63 38 39 NW7 30.28R  
6HR MIN TEMP: 60; 6HR MAX TEMP: 67;  
 
STURGIS* PTSUNNY 64 35 33 W5 30.27R  
6HR MIN TEMP: 60; 6HR MAX TEMP: 65;  
 
THREE RIVERS* FAIR 65 35 33 CALM 30.28R  
6HR MIN TEMP: 61; 6HR MAX TEMP: 66;  
 

 
OHZ001>008-015>018-024>025-010100-  
NORTHWEST OHIO  
 
CITY SKY/WX TMP DP RH WIND PRES REMARKS
 
WAUSEON* N/A 63 34 34 CALM 30.27  
DEFIANCE PTSUNNY 64 34 32 CALM 30.27S  
6HR MIN TEMP: 61; 6HR MAX TEMP: 66;  
 
FINDLAY PTCLDY 62 37 39 E5 30.27R  
6HR MIN TEMP: 62; 6HR MAX TEMP: 66;  
 
OTTAWA* FAIR 63 32 31 CALM 30.30R  
TOLEDO EXPRESS PTCLDY 64 35 34 CALM 30.27S  
6HR MIN TEMP: 61; 6HR MAX TEMP: 67;  
 
VAN WERT* FAIR 63 32 31 E6 30.28S  
LIMA PTCLDY 61 36 39 N5 30.28R  
6HR MIN TEMP: 61; 6HR MAX TEMP: 64;  
 

 
AND FOR LAKE MICHIGAN COASTAL AND OPEN LAKE BUOY OBSERVATIONS  
 
STATION/POSITION TEMP WIND PRES VSBY WAVE
 
AIR SEA DIR/SP/G HT/PER  
(F) (DEG/KT/KT) (MB) (MI) (FT/S)  
CALUMET HARBOR 57 80/ 8/ 10 1024.9F  
MICHIGAN CITY 55 60/ 10/ 10 N/A  
SAINT JOSEPH 57 360/ 2/ 2 1026.8  
 

 

 
 
 
CLICK HERE TO GO TO PREVIOUS BULLETINS.

The Nexlab IN Page
The Nexlab OH Page
The Nexlab MI Page Main Text Page